IRIDIUM 106 1 41917U 17003A 26165.86289610 .00000002 00000+0 -63477-5 0 9997 2 41917 86.3962 89.5279 0001769 84.1405 275.9992 14.34217425492879 IRIDIUM 103 1 41918U 17003B 26165.85021154 .00000084 00000+0 22758-4 0 9999 2 41918 86.3962 89.4329 0002343 78.3955 281.7504 14.34217876492895 IRIDIUM 109 1 41919U 17003C 26165.85655428 .00000009 00000+0 -39264-5 0 9996 2 41919 86.3961 89.4897 0002158 82.8944 277.2498 14.34217498492866 IRIDIUM 102 1 41920U 17003D 26165.82484101 .00000063 00000+0 15275-4 0 9997 2 41920 86.3962 89.4265 0002222 85.7697 274.3753 14.34217949492949 IRIDIUM 105 1 41921U 17003E 26165.78343970 .00000173 00000+0 54722-4 0 9993 2 41921 86.3967 57.8754 0002515 83.5964 276.5518 14.34218880494798 IRIDIUM 104 1 41922U 17003F 26165.83752693 .00000035 00000+0 53461-5 0 9993 2 41922 86.3963 89.4638 0002492 81.2640 278.8838 14.34217721492934 IRIDIUM 114 1 41923U 17003G 26165.84386924 .00000026 00000+0 22595-5 0 9999 2 41923 86.3962 89.4444 0002337 81.0900 279.0560 14.34217660492919 IRIDIUM 108 1 41924U 17003H 26165.66285270 .00000093 00000+0 26062-4 0 9998 2 41924 86.3961 57.8159 0002240 86.6784 273.4668 14.34218143494742 IRIDIUM 112 1 41925U 17003J 26165.83118375 .00000064 00000+0 15713-4 0 9998 2 41925 86.3959 89.2918 0002337 83.7795 276.3667 14.34217763492936 IRIDIUM 111 1 41926U 17003K 26165.33012742 .00000177 00000+0 56113-4 0 9999 2 41926 86.3961 89.5717 0002242 82.1840 277.9610 14.34216577492846 IRIDIUM 113 1 42803U 17039A 26165.86823154 .00000029 00000+0 32166-5 0 9997 2 42803 86.3968 323.1482 0002285 89.2025 270.9433 14.34217766470858 IRIDIUM 123 1 42804U 17039B 26165.77017244 .00000075 00000+0 19749-4 0 9995 2 42804 86.3971 354.6477 0002021 85.3515 274.7912 14.34217450469600 IRIDIUM 120 1 42805U 17039C 26165.86188578 .00000217 00000+0 70425-4 0 9991 2 42805 86.3957 322.9337 0002011 94.5890 265.5536 14.34215731470843 IRIDIUM 115 1 42806U 17039D 26165.83064948 .00000151 00000+0 38955-4 0 9992 2 42806 86.4494 323.0751 0001975 89.5115 270.6312 14.43282034473926 IRIDIUM 118 1 42807U 17039E 26165.80188441 .00000136 00000+0 41505-4 0 9993 2 42807 86.3971 354.6327 0002203 88.6064 271.5384 14.34218675469602 IRIDIUM 117 1 42808U 17039F 26165.82091317 .00000047 00000+0 98514-5 0 9995 2 42808 86.3970 354.5825 0002117 86.5538 273.5900 14.34217971469638 IRIDIUM 126 1 42809U 17039G 26165.77651483 .00000094 00000+0 26681-4 0 9993 2 42809 86.3971 354.6520 0002213 85.7417 274.4031 14.34218016469600 IRIDIUM 124 1 42810U 17039H 26165.83380319 .00000275 00000+0 75646-4 0 9995 2 42810 86.4480 291.3428 0002174 92.9501 267.1949 14.43281064474776 IRIDIUM 128 1 42811U 17039J 26165.62771612 .00000083 00000+0 22715-4 0 9999 2 42811 86.3969 26.2206 0002003 87.2607 272.8818 14.34218140469612 IRIDIUM 121 1 42812U 17039K 26165.79554270 .00000150 00000+0 46635-4 0 9999 2 42812 86.3971 354.6717 0002119 90.5929 269.5509 14.34218325469483 IRIDIUM 133 1 42955U 17061A 26165.65942807 .00000059 00000+0 13983-4 0 9992 2 42955 86.3969 26.3249 0002104 85.7863 274.3573 14.34217195454414 IRIDIUM 100 1 42956U 17061B 26165.65308517 .00000099 00000+0 28447-4 0 9992 2 42956 86.3968 26.2463 0002164 87.0210 273.1233 14.34216877454414 IRIDIUM 122 1 42957U 17061C 26165.62137424 .00000002 00000+0 -64301-5 0 9992 2 42957 86.3965 26.2595 0002073 83.8457 276.2975 14.34217400454414 IRIDIUM 129 1 42958U 17061D 26165.85605044 .00000015 00000+0 -17727-5 0 9990 2 42958 86.3969 26.2286 0002440 85.9062 274.2412 14.34217743454468 IRIDIUM 119 1 42959U 17061E 26165.89410586 .00000029 00000+0 31535-5 0 9997 2 42959 86.3970 26.2086 0002238 83.9085 276.2366 14.34217665454482 IRIDIUM 107 1 42960U 17061F 26165.84336406 .00000077 00000+0 20263-4 0 9990 2 42960 86.3970 26.2510 0001974 81.7043 278.4376 14.34217976454482 IRIDIUM 132 1 42961U 17061G 26165.84970759 .00000060 00000+0 14496-4 0 9999 2 42961 86.3970 26.2278 0002186 85.0868 275.0577 14.34217505454486 IRIDIUM 136 1 42962U 17061H 26165.88143102 .00000154 00000+0 47843-4 0 9994 2 42962 86.3971 26.2212 0002180 88.1696 271.9750 14.34218611454503 IRIDIUM 139 1 42963U 17061J 26165.88776256 .00000097 00000+0 27402-4 0 9992 2 42963 86.3972 26.2805 0002073 86.9786 273.1647 14.34218133454519 IRIDIUM 125 1 42964U 17061K 26165.66577355 .00000173 00000+0 54664-4 0 9993 2 42964 86.3960 26.4331 0002516 67.7846 292.3616 14.34215026454493 IRIDIUM 135 1 43070U 17083A 26165.84920334 .00000019 00000+0 -28227-6 0 9993 2 43070 86.3962 322.9930 0002174 91.3591 268.7854 14.34217697443814 IRIDIUM 138 1 43071U 17083B 26165.66526727 .00000054 00000+0 12205-4 0 9997 2 43071 86.3975 322.7650 0002339 86.6816 273.4647 14.34218288443771 IRIDIUM 116 1 43072U 17083C 26165.84286016 .00000041 00000+0 74592-5 0 9996 2 43072 86.3961 322.9816 0001934 97.4864 262.6552 14.34217887443832 IRIDIUM 130 1 43073U 17083D 26165.67161001 -.00000004 00000+0 -86601-5 0 9999 2 43073 86.3968 323.3285 0001806 90.8842 269.2561 14.34217388443756 IRIDIUM 151 1 43074U 17083E 26165.85554596 .00000027 00000+0 27000-5 0 9996 2 43074 86.3963 323.0340 0002147 92.5295 267.6147 14.34217715443803 IRIDIUM 134 1 43075U 17083F 26165.82383227 .00000046 00000+0 92367-5 0 9994 2 43075 86.3965 323.0553 0002090 90.6186 269.5249 14.34218031443768 IRIDIUM 137 1 43076U 17083G 26165.83651787 .00000043 00000+0 82317-5 0 9996 2 43076 86.3967 323.1427 0002193 103.7919 256.3521 14.34217898443831 IRIDIUM 141 1 43077U 17083H 26165.83017552 .00000018 00000+0 -63155-6 0 9996 2 43077 86.3960 322.9761 0002208 90.9194 269.2255 14.34217732443836 IRIDIUM 153 1 43078U 17083J 26165.85212316 .00000023 00000+0 13164-5 0 9993 2 43078 86.3958 291.4472 0002281 90.0877 270.0580 14.34217706444948 IRIDIUM 131 1 43079U 17083K 26165.81748907 .00000118 00000+0 35113-4 0 9992 2 43079 86.3967 323.1673 0002212 92.1714 267.9735 14.34218662443760 IRIDIUM 144 1 43249U 18030A 26165.85846416 .00000080 00000+0 21513-4 0 9999 2 43249 86.3957 291.3738 0002098 96.3021 263.8414 14.34218316429809 IRIDIUM 149 1 43250U 18030B 26165.86480826 -.00000015 00000+0 -12277-4 0 9998 2 43250 86.3953 291.3383 0002128 93.5567 266.5872 14.34217389429820 IRIDIUM 157 1 43251U 18030C 26165.81406727 .00000015 00000+0 -17838-5 0 9990 2 43251 86.3957 291.4124 0002193 93.9372 266.2075 14.34217697429799 IRIDIUM 140 1 43252U 18030D 26165.83309513 .00000016 00000+0 -14204-5 0 9993 2 43252 86.3957 291.4170 0002137 93.0162 267.1278 14.34217603429856 IRIDIUM 145 1 43253U 18030E 26165.82040931 .00000058 00000+0 13663-4 0 9991 2 43253 86.3956 291.3946 0001954 100.1476 259.9940 14.34217651429780 IRIDIUM 146 1 43254U 18030F 26165.59207639 .00000025 00000+0 17174-5 0 9992 2 43254 86.3957 291.5024 0002097 96.3281 263.8154 14.34217727429763 IRIDIUM 148 1 43255U 18030G 26165.83943794 .00000052 00000+0 11652-4 0 9993 2 43255 86.3958 291.4420 0002246 96.7150 263.4302 14.34217825429837 IRIDIUM 142 1 43256U 18030H 26165.59841838 .00000161 00000+0 50300-4 0 9997 2 43256 86.3953 291.4318 0002068 97.7361 262.4070 14.34218067429768 IRIDIUM 150 1 43257U 18030J 26165.84578038 .00000010 00000+0 -35335-5 0 9991 2 43257 86.3957 291.4446 0002135 93.3988 266.7452 14.34217566429828 IRIDIUM 143 1 43258U 18030K 26165.82675209 .00000116 00000+0 34243-4 0 9990 2 43258 86.3961 291.5450 0002059 95.7652 264.3778 14.34217497429759 IRIDIUM 161 1 43478U 18047C 26165.32643156 .00000286 00000+0 79065-4 0 9992 2 43478 86.4483 89.6672 0002538 85.5993 274.5498 14.43281564424722 IRIDIUM 152 1 43479U 18047D 26165.79947071 .00000062 00000+0 15082-4 0 9998 2 43479 86.3958 89.3305 0002332 83.7641 276.3820 14.34217967422140 IRIDIUM 147 1 43480U 18047E 26165.87558194 .00000022 00000+0 82485-6 0 9992 2 43480 86.3960 89.3039 0002140 85.4853 274.6587 14.34217564422155 IRIDIUM 110 1 43481U 18047F 26165.32377703 .00000086 00000+0 23501-4 0 9990 2 43481 86.3962 89.6269 0002693 81.9507 278.1994 14.34215722422061 IRIDIUM 162 1 43482U 18047G 26165.87478588 .00000283 00000+0 78108-4 0 9996 2 43482 86.4481 89.3290 0002285 82.6310 277.5150 14.43280502424794 IRIDIUM 160 1 43569U 18061A 26165.40914937 .00000066 00000+0 16649-4 0 9991 2 43569 86.3964 57.9590 0002273 85.6230 274.5226 14.34217856412970 IRIDIUM 166 1 43570U 18061B 26165.64382493 .00000056 00000+0 13000-4 0 9992 2 43570 86.3964 57.8115 0002116 86.1692 273.9746 14.34217856413036 IRIDIUM 158 1 43571U 18061C 26165.61211225 .00000048 00000+0 10068-4 0 9996 2 43571 86.3963 57.8346 0002208 81.8403 278.3043 14.34217652412993 IRIDIUM 165 1 43572U 18061D 26165.77701825 .00000111 00000+0 32662-4 0 9999 2 43572 86.3965 57.8121 0002067 86.3247 273.8186 14.34217392413042 IRIDIUM 155 1 43573U 18061E 26165.66919536 .00000038 00000+0 66168-5 0 9995 2 43573 86.3960 57.7262 0002122 82.1937 277.9500 14.34217671412993 IRIDIUM 154 1 43574U 18061F 26165.78970130 .00000215 00000+0 69686-4 0 9990 2 43574 86.3966 57.8095 0002107 87.4094 272.7343 14.34219609413060 IRIDIUM 163 1 43575U 18061G 26165.77067172 .00000084 00000+0 23084-4 0 9999 2 43575 86.3960 57.7327 0002273 83.7064 276.4390 14.34216552413036 IRIDIUM 156 1 43576U 18061H 26165.67553683 .00000203 00000+0 65524-4 0 9994 2 43576 86.3961 57.7796 0002062 81.2650 278.8779 14.34218142413010 IRIDIUM 164 1 43577U 18061J 26165.65650978 .00000094 00000+0 26385-4 0 9998 2 43577 86.3963 57.8280 0002104 88.7714 271.3723 14.34218044413054 IRIDIUM 159 1 43578U 18061K 26165.62479725 .00000114 00000+0 33586-4 0 9999 2 43578 86.3961 57.7780 0002285 84.0765 276.0691 14.34217839413015 IRIDIUM 180 1 43922U 19002A 26165.55452461 .00000009 00000+0 -37173-5 0 9999 2 43922 86.3967 354.6983 0002159 89.1479 270.9964 14.34217513388618 IRIDIUM 176 1 43923U 19002B 26165.78008552 .00000670 00000+0 10239-3 0 9998 2 43923 86.6090 354.5479 0002264 92.2864 267.8612 14.72264110398891 IRIDIUM 168 1 43924U 19002C 26165.75748718 .00000055 00000+0 12660-4 0 9999 2 43924 86.3974 354.6909 0002169 88.8381 271.3063 14.34218112388627 IRIDIUM 173 1 43925U 19002D 26165.60526539 .00000072 00000+0 18573-4 0 9997 2 43925 86.3969 354.6432 0002209 86.8821 273.2628 14.34217763388589 IRIDIUM 169 1 43926U 19002E 26165.88734821 .00000247 00000+0 74294-4 0 9999 2 43926 86.4226 26.1550 0001932 71.8084 288.3324 14.38607997389897 IRIDIUM 172 1 43927U 19002F 26165.80822774 .00000125 00000+0 37402-4 0 9992 2 43927 86.3969 354.5664 0002253 88.8689 271.2765 14.34217656388626 IRIDIUM 175 1 43928U 19002G 26165.84982146 .00000273 00000+0 74659-4 0 9996 2 43928 86.4511 291.4981 0002193 186.8574 173.2598 14.43611553398649 IRIDIUM 171 1 43929U 19002H 26165.78920056 -.00000109 00000+0 -45979-4 0 9995 2 43929 86.3976 354.8803 0001887 89.2578 270.8834 14.34216653388615 IRIDIUM 170 1 43930U 19002J 26165.58236543 .00000683 00000+0 10437-3 0 9991 2 43930 86.6090 354.6330 0002356 88.6967 271.4520 14.72264390398878 IRIDIUM 167 1 43931U 19002K 26165.78285719 .00000006 00000+0 -49755-5 0 9990 2 43931 86.3968 354.5993 0001750 89.8169 270.3228 14.34217575388613 IRIDIUM 181 1 56726U 23068S 26165.40260893 .00000274 00000+0 75468-4 0 9993 2 56726 86.4501 57.9545 0002288 89.3466 270.7997 14.43311459162031 IRIDIUM 177 1 56727U 23068T 26165.82131593 .00000964 00000+0 12332-3 0 9990 2 56727 86.1960 329.9153 0002383 87.2474 272.9020 14.80226389166018 IRIDIUM 174 1 56728U 23068U 26165.77392426 .00000700 00000+0 10710-3 0 9995 2 56728 86.6098 354.7002 0002489 84.2138 275.9363 14.72260913165661 IRIDIUM 178 1 56729U 23068V 26165.87805061 .00000861 00000+0 10981-3 0 9999 2 56729 86.6539 26.3253 0002652 86.5141 273.6383 14.80230178166020 IRIDIUM 179 1 56730U 23068W 26165.66984784 .00000676 00000+0 85482-4 0 9991 2 56730 86.6781 35.3848 0002442 88.7589 271.3912 14.80233113165998